Location: Haulchin
(50.3172°N, 3.4360°E)
Time: 14:34:58
(UTC+00:00)

FENGYUN 3A - Pass Details

Date: 23 May 2024
Orbit: 821 x 835 km, 98.6° (Epoch: 16 June)

Event Time Altitude Azimuth Distance (km) Brightness Sun altitude
Rises 02:14:15 0° 15° (NNE) 3,373 8.3 -11.6°
Reaches altitude 10° 02:16:37 10° 17° (NNE) 2,434 7.4 -11.4°
Maximum altitude 02:22:01 78° 104° (ESE) 846 3.8 -10.8°
Drops below altitude 10° 02:27:22 10° 191° (S) 2,414 5.5 -10.3°
Enters shadow 02:27:28 10° 191° (S) 2,449 5.6 -10.3°
